CW4206 Weather Reports


Display with metric or nautical units.
time (UTC)temp
F
wind
direction
speed
MPH
gust
MPH
rain 1hr
in
rain 24hr
in
rain mn
in
humidity
%
barometer
mb
20260507191551 54 285 0.0 1.0 0.02 0.42 0.42 97 1010.3
20260507191032 54 0 0.0 1.0 0.03 0.42 0.42 98 1010.2
20260507190533 54 0 0.0 1.0 0.03 0.41 0.41 97 1010.4
20260507190046 54 0 0.0 2.0 0.03 0.41 0.41 97 1010.6
20260507185534 54 0 0.0 2.0 0.03 0.41 0.41 97 1010.8
20260507185032 54 0 0.0 2.0 0.02 0.40 0.40 97 1011.0
20260507184542 54 0 0.0 4.0 0.02 0.40 0.40 97 1010.9
20260507184032 54 0 0.0 4.0 0.02 0.40 0.40 97 1011.1
20260507183534 54 21 0.0 4.0 0.02 0.40 0.40 97 1010.9
20260507183047 54 0 0.0 1.0 0.02 0.40 0.40 97 1011.0
20260507182535 54 0 0.0 1.0 0.02 0.40 0.40 97 1011.0
20260507182031 54 57 0.0 1.0 0.02 0.40 0.40 98 1010.9
20260507181543 54 0 0.0 1.0 0.02 0.40 0.40 98 1010.9
20260507181034 54 0 0.0 1.0 0.01 0.39 0.39 97 1010.8
20260507180535 53 0 0.0 1.0 0.00 0.38 0.38 97 1011.0
20260507180057 53 0 0.0 1.0 0.00 0.38 0.38 97 1010.9
20260507175534 53 0 0.0 1.0 0.00 0.38 0.38 97 1011.2
20260507175034 53 0 0.0 1.0 0.00 0.38 0.38 97 1011.3
20260507174546 53 0 0.0 1.0 0.00 0.38 0.38 97 1011.3
20260507174033 53 0 0.0 3.0 0.00 0.38 0.38 97 1011.2
20260507173532 53 0 0.0 3.0 0.01 0.38 0.38 97 1011.2
20260507173049 53 0 0.0 3.0 0.02 0.38 0.38 97 1010.2
20260507172536 53 0 0.0 3.0 0.02 0.38 0.38 97 1011.0
20260507172030 53 0 0.0 1.0 0.02 0.38 0.38 97 1011.4
20260507171604 53 0 0.0 4.0 0.02 0.38 0.38 97 1011.4
20260507171034 53 279 0.0 4.0 0.03 0.38 0.38 96 1011.3
20260507170533 53 0 0.0 3.0 0.04 0.38 0.38 97 1011.2
20260507170042 53 286 0.0 4.0 0.04 0.38 0.38 97 1011.4
20260507165532 53 5 0.0 4.0 0.05 0.39 0.38 97 1011.0
20260507165032 54 28 1.0 5.0 0.05 0.39 0.38 96 1010.9
20260507164550 54 352 1.0 5.0 0.05 0.39 0.38 97 1011.1
20260507164032 54 13 1.0 5.0 0.05 0.39 0.38 97 1011.8
20260507163534 54 65 0.0 2.0 0.04 0.38 0.37 98 1011.8
20260507163050 54 0 0.0 2.0 0.04 0.37 0.36 98 1011.6
20260507162532 54 0 0.0 3.0 0.04 0.37 0.36 98 1011.8
20260507162035 54 0 0.0 3.0 0.05 0.37 0.36 98 1011.8
20260507161545 54 325 0.0 2.0 0.04 0.36 0.35 98 1011.7
20260507161032 54 0 0.0 2.0 0.04 0.36 0.35 98 1011.7
20260507160534 54 0 0.0 2.0 0.03 0.35 0.34 98 1011.5
20260507160052 54 237 0.0 2.0 0.03 0.35 0.34 98 1011.2
20260507155531 54 0 0.0 2.0 0.03 0.34 0.33 97 1011.5
20260507155034 54 0 0.0 2.0 0.03 0.34 0.33 97 1011.6
20260507154550 54 0 0.0 2.0 0.03 0.34 0.33 97 1011.4
20260507154033 54 0 0.0 2.0 0.03 0.34 0.33 97 1011.4
20260507153532 54 0 0.0 3.0 0.04 0.34 0.33 97 1011.4
20260507153051 54 13 0.0 3.0 0.05 0.33 0.32 97 1011.4
20260507152535 55 24 0.0 3.0 0.05 0.33 0.32 97 1011.5
20260507152034 55 0 1.0 3.0 0.05 0.32 0.31 98 1011.7
20260507151544 55 0 0.0 2.0 0.05 0.32 0.31 98 1011.5
20260507151032 55 0 0.0 2.0 0.05 0.32 0.31 98 1011.4
20260507150532 55 0 0.0 2.0 0.05 0.32 0.31 98 1011.4
20260507150047 55 63 0.0 3.0 0.05 0.32 0.31 98 1011.6
20260507145532 55 0 0.0 3.0 0.04 0.31 0.30 98 1011.3
20260507145036 55 0 0.0 3.0 0.04 0.31 0.30 98 1011.1
20260507144543 55 0 0.0 6.0 0.04 0.31 0.30 97 1010.9
20260507144032 55 0 0.0 6.0 0.03 0.30 0.29 97 1011.2
20260507143533 56 45 0.0 6.0 0.02 0.29 0.28 97 1011.0
20260507143048 56 26 1.0 6.0 0.01 0.28 0.27 97 1011.1
20260507142533 56 0 0.0 6.0 0.02 0.28 0.27 97 1011.2
20260507142034 56 5 0.0 2.0 0.01 0.27 0.26 98 1011.4
20260507141548 56 0 0.0 2.0 0.02 0.27 0.26 98 1011.8
20260507141032 56 337 0.0 2.0 0.03 0.27 0.26 98 1011.8
20260507140536 57 0 0.0 2.0 0.03 0.27 0.26 98 1011.8
20260507140055 57 64 0.0 3.0 0.03 0.27 0.26 98 1011.5
20260507135532 57 0 0.0 3.0 0.04 0.27 0.26 98 1011.2
20260507135032 57 0 0.0 3.0 0.04 0.27 0.26 98 1011.1
20260507134548 57 336 0.0 1.0 0.04 0.27 0.26 98 1010.9
20260507134031 57 0 0.0 3.0 0.04 0.27 0.26 98 1011.1
20260507133532 57 336 0.0 3.0 0.05 0.27 0.26 98 1010.8
20260507133044 57 334 0.0 2.0 0.05 0.27 0.26 98 1010.8
20260507132533 57 0 0.0 2.0 0.04 0.26 0.25 98 1010.9
20260507132034 57 0 0.0 1.0 0.04 0.26 0.25 97 1011.2
20260507131543 57 0 0.0 2.0 0.02 0.24 0.23 98 1011.2
20260507131034 57 0 0.0 2.0 0.02 0.24 0.23 98 1011.3
20260507130535 57 0 0.0 2.0 0.02 0.24 0.23 97 1011.2
20260507130054 58 0 0.0 4.0 0.02 0.24 0.23 97 1011.2
20260507125532 58 0 0.0 4.0 0.01 0.23 0.22 97 1011.1
20260507125032 58 0 0.0 2.0 0.01 0.23 0.22 97 1011.2
20260507124607 58 0 0.0 1.0 0.02 0.23 0.22 97 1011.1
20260507124034 59 0 0.0 2.0 0.01 0.22 0.21 97 1011.2
20260507123533 59 0 0.0 2.0 0.01 0.22 0.21 97 1011.1
20260507123048 59 0 0.0 2.0 0.01 0.22 0.21 97 1011.2
20260507122533 60 0 0.0 2.0 0.02 0.22 0.21 97 1010.9
20260507122032 60 19 0.0 2.0 0.02 0.22 0.21 97 1010.8
20260507121552 61 0 0.0 2.0 0.03 0.22 0.21 97 1010.8
20260507121032 62 0 0.0 2.0 0.05 0.22 0.21 97 1010.8
20260507120532 63 352 0.0 2.0 0.05 0.22 0.21 98 1011.3
20260507120049 64 352 0.0 2.0 0.07 0.22 0.21 99 1011.1
20260507115533 64 0 0.0 0.0 0.08 0.22 0.21 99 1011.0
20260507115033 64 0 0.0 0.0 0.08 0.22 0.21 99 1010.7
20260507114609 64 0 0.0 0.0 0.07 0.21 0.20 99 1010.4
20260507114034 64 0 0.0 0.0 0.07 0.21 0.20 99 1010.7
20260507113532 64 0 0.0 0.0 0.08 0.21 0.20 99 1010.5
20260507113049 64 0 0.0 0.0 0.08 0.21 0.20 99 1010.4
20260507112531 64 0 0.0 0.0 0.07 0.20 0.19 99 1010.4
20260507112032 64 0 0.0 0.0 0.07 0.20 0.19 99 1010.7
20260507111545 64 0 0.0 0.0 0.06 0.19 0.18 99 1010.6
20260507111035 64 0 0.0 0.0 0.04 0.17 0.16 99 1010.7
20260507110532 64 0 0.0 0.0 0.03 0.16 0.15 99 1010.6
20260507110048 64 0 0.0 0.0 0.02 0.15 0.14 99 1010.7
20260507105531 64 0 0.0 0.0 0.01 0.14 0.13 99 1010.6
20260507105032 64 0 0.0 0.0 0.01 0.14 0.13 99 1010.6
20260507104555 64 0 0.0 0.0 0.01 0.14 0.13 99 1010.5
20260507104031 64 0 0.0 0.0 0.01 0.14 0.13 99 1010.3
20260507103531 64 0 0.0 0.0 0.00 0.13 0.12 99 1010.3
20260507103040 64 0 0.0 0.0 0.01 0.13 0.12 99 1010.3
20260507102530 64 0 0.0 0.0 0.01 0.13 0.12 99 1010.3
20260507102029 64 0 0.0 0.0 0.01 0.13 0.12 99 1010.6
20260507101549 64 0 0.0 0.0 0.02 0.13 0.12 99 1010.6
20260507101034 64 0 0.0 0.0 0.02 0.13 0.12 99 1010.5
20260507100532 64 0 0.0 0.0 0.03 0.13 0.12 99 1010.4
20260507100046 64 0 0.0 0.0 0.04 0.13 0.12 99 1010.3
20260507095533 64 0 0.0 0.0 0.04 0.13 0.12 99 1010.1
20260507095029 64 0 0.0 0.0 0.05 0.13 0.12 99 1010.0
20260507094553 64 0 0.0 0.0 0.05 0.13 0.12 99 1010.2
20260507094029 64 0 0.0 1.0 0.05 0.13 0.12 99 1010.2
20260507093532 64 0 0.0 1.0 0.05 0.13 0.12 99 1010.1
20260507093044 64 0 0.0 1.0 0.04 0.12 0.11 99 1010.0
20260507092532 64 0 0.0 0.0 0.04 0.12 0.11 99 1010.0
20260507092031 64 0 0.0 1.0 0.04 0.12 0.11 99 1010.0
20260507091544 64 0 0.0 1.0 0.03 0.11 0.10 99 1010.1
20260507091030 64 0 0.0 1.0 0.02 0.10 0.09 99 1010.4
20260507090530 64 0 0.0 2.0 0.02 0.10 0.09 99 1010.3
20260507090048 64 0 0.0 2.0 0.02 0.09 0.08 99 1010.4
20260507085532 64 0 0.0 2.0 0.02 0.09 0.08 99 1010.1
20260507085031 65 0 0.0 1.0 0.01 0.08 0.07 99 1009.9
20260507084544 65 0 0.0 1.0 0.01 0.08 0.07 99 1009.7
20260507084036 65 0 0.0 1.0 0.01 0.08 0.07 99 1009.7
20260507083532 65 129 0.0 2.0 0.01 0.08 0.07 99 1009.6
20260507083044 65 0 0.0 2.0 0.01 0.08 0.07 99 1009.6
20260507082532 65 0 0.0 2.0 0.01 0.08 0.07 99 1009.7
20260507082031 65 0 0.0 2.0 0.01 0.08 0.07 99 1009.5
20260507081544 65 0 0.0 3.0 0.01 0.08 0.07 99 1009.7
20260507081032 65 0 0.0 3.0 0.01 0.08 0.07 99 1009.8
20260507080532 65 0 0.0 4.0 0.01 0.08 0.07 99 1009.9
20260507080044 65 0 0.0 7.0 0.00 0.07 0.06 99 1010.1
20260507075533 65 0 0.0 7.0 0.00 0.07 0.06 99 1010.3
20260507075033 65 221 0.0 7.0 0.00 0.07 0.06 99 1010.3
20260507074549 65 269 0.0 7.0 0.00 0.07 0.06 98 1010.2
20260507074031 65 0 1.0 7.0 0.00 0.07 0.06 98 1010.1
20260507073536 65 269 0.0 2.0 0.00 0.07 0.06 98 1009.9
20260507073047 65 0 0.0 2.0 0.00 0.07 0.06 99 1010.0
20260507072533 65 0 0.0 2.0 0.00 0.07 0.06 99 1010.1
20260507072031 65 0 0.0 0.0 0.00 0.07 0.06 99 1010.1
20260507071550 65 0 0.0 4.0 0.00 0.07 0.06 99 1010.2
20260507071032 65 0 0.0 4.0 0.00 0.07 0.06 99 1010.6
20260507070533 65 215 0.0 4.0 0.00 0.07 0.06 99 1010.8
20260507070059 65 0 0.0 3.0 0.00 0.07 0.06 98 1010.9
20260507065532 65 0 0.0 1.0 0.00 0.07 0.06 98 1010.9
20260507065031 65 0 0.0 2.0 0.00 0.07 0.06 98 1010.8
20260507064548 65 0 0.0 2.0 0.00 0.07 0.06 98 1010.8
20260507064033 65 0 0.0 2.0 0.00 0.07 0.06 98 1011.0
20260507063531 65 190 0.0 1.0 0.00 0.07 0.06 98 1010.9
20260507063054 65 262 0.0 1.0 0.00 0.07 0.06 98 1010.9
20260507062531 65 0 0.0 2.0 0.01 0.07 0.06 98 1011.0
20260507062032 65 0 0.0 2.0 0.01 0.07 0.06 98 1010.9
20260507061548 65 0 0.0 2.0 0.02 0.07 0.06 98 1011.0
20260507061031 65 0 0.0 1.0 0.03 0.07 0.06 98 1011.0
20260507060532 65 0 0.0 1.0 0.03 0.07 0.06 98 1011.0
20260507060048 65 0 0.0 2.0 0.04 0.07 0.06 98 1010.9
20260507055532 65 0 0.0 2.0 0.04 0.07 0.06 98 1010.9
20260507055032 65 0 0.0 1.0 0.04 0.07 0.06 98 1010.8
20260507054544 65 0 0.0 1.0 0.04 0.07 0.06 98 1010.9
20260507054032 65 0 0.0 1.0 0.04 0.07 0.06 98 1010.7
20260507053535 65 0 0.0 1.0 0.05 0.07 0.06 97 1010.5
20260507053040 66 0 0.0 1.0 0.05 0.07 0.06 98 1010.5
20260507052531 66 0 0.0 2.0 0.04 0.06 0.05 97 1010.1
20260507052034 66 0 0.0 2.0 0.04 0.06 0.05 97 1010.7
20260507051548 66 0 0.0 2.0 0.03 0.05 0.04 97 1011.3
20260507051031 66 0 0.0 2.0 0.03 0.04 0.03 97 1011.7
20260507050533 66 0 0.0 2.0 0.03 0.04 0.03 97 1011.9
20260507050047 66 0 0.0 2.0 0.02 0.03 0.02 97 1012.1
20260507045531 66 0 0.0 1.0 0.02 0.03 0.02 97 1012.0
20260507045032 66 0 0.0 1.0 0.02 0.03 0.02 96 1012.0
20260507044546 66 0 0.0 2.0 0.02 0.03 0.02 96 1012.0
20260507044032 66 0 0.0 2.0 0.02 0.03 0.02 96 1011.9
20260507043531 66 343 0.0 1.0 0.01 0.02 0.01 96 1012.0
20260507043043 66 0 0.0 1.0 0.01 0.02 0.01 95 1012.0
20260507042533 66 0 0.0 1.0 0.01 0.02 0.01 95 1011.9
20260507042029 66 0 0.0 1.0 0.01 0.02 0.01 94 1011.9
20260507041548 66 0 0.0 1.0 0.01 0.02 0.01 94 1011.7
20260507041029 66 0 0.0 0.0 0.00 0.01 0.00 94 1011.7
20260507040530 66 0 0.0 0.0 0.00 0.01 0.00 93 1011.7
20260507040050 67 0 0.0 0.0 0.00 0.01 0.00 93 1011.6
20260507035531 67 0 0.0 0.0 0.00 0.01 0.01 92 1011.6
20260507035032 67 0 0.0 0.0 0.00 0.01 0.01 92 1011.6
20260507034543 67 0 0.0 0.0 0.00 0.01 0.01 91 1011.7
20260507034032 67 0 0.0 0.0 0.00 0.01 0.01 90 1011.6
20260507033533 67 0 0.0 1.0 0.00 0.01 0.01 89 1011.7
20260507033045 67 0 0.0 2.0 0.00 0.01 0.01 89 1011.7
20260507032534 68 0 0.0 2.0 0.00 0.01 0.01 89 1011.7
20260507032031 68 0 0.0 2.0 0.00 0.01 0.01 88 1011.7
20260507031540 68 348 0.0 2.0 0.00 0.01 0.01 88 1011.4
20260507031033 68 0 0.0 2.0 0.00 0.01 0.01 88 1011.3
20260507030532 67 0 0.0 2.0 0.00 0.01 0.01 88 1011.4
20260507030045 67 0 0.0 3.0 0.00 0.01 0.01 88 1011.4
20260507025529 67 0 0.0 3.0 0.00 0.01 0.01 88 1011.2
20260507025032 67 0 0.0 3.0 0.00 0.01 0.01 88 1011.2
20260507024542 67 0 0.0 3.0 0.00 0.01 0.01 89 1011.1
20260507024032 67 0 0.0 3.0 0.00 0.01 0.01 89 1011.2
20260507023531 67 0 0.0 1.0 0.00 0.01 0.01 89 1011.3
20260507023047 67 0 0.0 1.0 0.00 0.01 0.01 89 1011.4
20260507022530 67 0 0.0 0.0 0.00 0.01 0.01 89 1011.1
20260507022032 67 0 0.0 0.0 0.00 0.01 0.01 89 1011.1
20260507021545 67 0 0.0 1.0 0.00 0.01 0.01 90 1011.6
20260507021034 67 0 0.0 1.0 0.00 0.01 0.01 90 1011.6
20260507020533 66 0 0.0 2.0 0.00 0.01 0.01 90 1011.8
20260507020044 66 0 0.0 2.0 0.00 0.01 0.01 90 1011.9
20260507015533 66 0 0.0 1.0 0.00 0.01 0.01 89 1011.9
20260507015031 67 0 0.0 0.0 0.00 0.01 0.01 89 1012.0
20260507014550 67 0 0.0 0.0 0.00 0.01 0.01 88 1011.9
20260507014029 67 0 0.0 0.0 0.00 0.01 0.01 88 1011.8
20260507013535 67 0 0.0 0.0 0.00 0.01 0.01 88 1011.7
20260507013058 67 0 0.0 0.0 0.00 0.01 0.01 88 1011.5
20260507012529 67 0 0.0 0.0 0.00 0.01 0.01 87 1011.4
20260507012032 67 0 0.0 0.0 0.00 0.01 0.01 87 1011.3
20260507011547 68 0 0.0 0.0 0.00 0.01 0.01 87 1011.4
20260507011033 68 0 0.0 0.0 0.00 0.01 0.01 86 1011.7
20260507010532 68 0 0.0 0.0 0.00 0.01 0.01 86 1011.6
20260507010054 68 0 0.0 0.0 0.00 0.01 0.01 86 1011.6
20260507005529 68 0 0.0 0.0 0.00 0.01 0.01 85 1011.4
20260507005030 68 0 0.0 0.0 0.00 0.01 0.01 85 1011.2
20260507004546 69 0 0.0 0.0 0.00 0.01 0.01 85 1011.2
20260507004031 69 0 0.0 1.0 0.00 0.01 0.01 85 1011.3
20260507003533 69 0 0.0 1.0 0.00 0.01 0.01 85 1011.6
20260507003043 69 0 0.0 1.0 0.00 0.01 0.01 84 1011.5
20260507002531 69 0 0.0 1.0 0.00 0.01 0.01 84 1011.6
20260507002030 70 0 0.0 1.0 0.00 0.01 0.01 84 1011.6
20260507001547 70 0 0.0 0.0 0.00 0.01 0.01 83 1011.7
20260507001031 70 0 0.0 0.0 0.00 0.01 0.01 83 1011.7
20260507000532 70 0 0.0 0.0 0.00 0.01 0.01 82 1011.9
20260507000040 71 0 0.0 1.0 0.00 0.01 0.01 82 1011.8
20260506235532 71 0 0.0 1.0 0.00 0.01 0.01 82 1011.8
20260506235031 71 0 0.0 3.0 0.00 0.01 0.01 81 1011.6
20260506234611 71 0 0.0 3.0 0.00 0.01 0.01 81 1011.5
20260506234244 71 0 0.0 2.0 0.00 0.01 0.01 81 1011.5
20260506233535 72 0 0.0 2.0 0.00 0.01 0.01 80 1011.3
20260506233100 72 0 0.0 1.0 0.00 0.01 0.01 80 1011.1
20260506232532 72 352 0.0 2.0 0.00 0.01 0.01 79 1011.1
20260506232034 72 0 0.0 5.0 0.00 0.01 0.01 79 1011.0
20260506231543 72 0 1.0 5.0 0.00 0.01 0.01 79 1010.9
20260506231035 72 0 0.0 5.0 0.00 0.01 0.01 79 1011.0
20260506230533 72 0 0.0 3.0 0.00 0.01 0.01 79 1011.0
20260506230047 73 0 0.0 3.0 0.00 0.01 0.01 79 1010.8
20260506225535 73 125 0.0 2.0 0.00 0.01 0.01 79 1010.9
20260506225039 73 217 0.0 3.0 0.00 0.01 0.01 79 1010.9
20260506224547 73 0 0.0 3.0 0.00 0.01 0.01 78 1010.8
20260506224032 73 0 0.0 2.0 0.00 0.01 0.01 78 1010.9
20260506223536 73 0 0.0 3.0 0.00 0.01 0.01 79 1011.0
20260506223047 73 258 0.0 3.0 0.00 0.01 0.01 78 1010.9
20260506222533 73 208 0.0 3.0 0.00 0.01 0.01 78 1011.1
20260506222035 73 0 0.0 8.0 0.00 0.01 0.01 78 1010.9
20260506221553 73 30 1.0 8.0 0.00 0.01 0.01 77 1010.9
20260506221032 73 65 0.0 4.0 0.00 0.01 0.01 77 1010.9
20260506220536 74 0 1.0 5.0 0.00 0.01 0.01 76 1010.8
20260506220046 74 227 1.0 9.0 0.00 0.01 0.01 76 1010.8
20260506215533 74 0 0.0 9.0 0.00 0.01 0.01 77 1010.9
20260506215033 74 0 1.0 6.0 0.00 0.01 0.01 76 1010.9
20260506214553 74 211 1.0 6.0 0.00 0.01 0.01 77 1011.0
20260506214033 73 0 1.0 6.0 0.00 0.01 0.01 76 1011.1
20260506213534 73 0 1.0 6.0 0.00 0.01 0.01 77 1011.2
20260506213040 73 0 0.0 6.0 0.00 0.01 0.01 77 1011.1
20260506212534 73 210 1.0 6.0 0.00 0.01 0.01 77 1011.1
20260506212035 73 0 0.0 8.0 0.00 0.01 0.01 77 1010.9
20260506211551 73 227 1.0 8.0 0.00 0.01 0.01 77 1010.8
20260506211034 73 44 1.0 10.0 0.00 0.01 0.01 76 1010.8
20260506210533 73 0 1.0 10.0 0.00 0.01 0.01 77 1010.8
20260506210112 73 255 1.0 6.0 0.00 0.01 0.01 77 1010.7
20260506205535 73 227 1.0 5.0 0.00 0.01 0.01 78 1010.8
20260506205032 72 162 0.0 5.0 0.00 0.01 0.01 79 1010.7
20260506204546 72 0 0.0 3.0 0.00 0.01 0.01 79 1010.8
20260506204031 72 165 0.0 4.0 0.00 0.01 0.01 79 1010.9
20260506203531 72 0 0.0 4.0 0.00 0.01 0.01 79 1010.9
20260506203046 72 0 0.0 2.0 0.00 0.01 0.01 81 1010.6
20260506202532 72 183 0.0 3.0 0.00 0.01 0.01 81 1010.7
20260506202032 72 0 0.0 3.0 0.00 0.01 0.01 79 1010.3
20260506201547 72 0 0.0 3.0 0.00 0.01 0.01 79 1010.0
20260506201032 72 0 0.0 4.0 0.00 0.01 0.01 79 1010.1
20260506200527 72 0 1.0 4.0 0.00 0.01 0.01 78 1010.2
20260506200046 72 98 0.0 7.0 0.00 0.01 0.01 78 1010.4
20260506195530 72 184 0.0 7.0 0.00 0.01 0.01 78 1010.7
20260506195032 72 59 1.0 6.0 0.00 0.01 0.01 78 1010.9
20260506194550 72 158 0.0 6.0 0.00 0.01 0.01 78 1011.2
20260506194031 72 218 1.0 9.0 0.00 0.01 0.01 78 1011.2
20260506193530 72 214 2.0 9.0 0.00 0.01 0.01 77 1011.5
20260506193044 73 204 1.0 5.0 0.00 0.01 0.01 77 1011.5
20260506192531 73 0 1.0 7.0 0.00 0.01 0.01 77 1011.7
20260506192030 73 210 2.0 17.0 0.00 0.01 0.01 75 1011.8